DW8340 Weather Reports


time (UTC)temp
C
wind
direction
speed
KPH
gust
KPH
rain 1hr
cm
rain 24hr
cm
rain mn
cm
humidity
%
barometer
mb
20260506024548 21 179 0.0 4.8 0.00 0.00 0.00 55 1010.5
20260506024041 21 265 0.0 4.8 0.00 0.00 0.00 54 1010.6
20260506023540 22 0 0.0 6.4 0.00 0.00 0.00 54 1010.6
20260506023048 22 0 0.0 6.4 0.00 0.00 0.00 54 1010.6
20260506022540 22 259 0.0 6.4 0.00 0.00 0.00 53 1010.6
20260506022040 22 0 1.6 6.4 0.00 0.00 0.00 53 1010.6
20260506021545 22 0 0.0 4.8 0.00 0.00 0.00 52 1010.5
20260506021042 22 295 0.0 12.9 0.00 0.00 0.00 52 1010.5
20260506020539 22 0 1.6 12.9 0.00 0.00 0.00 52 1010.5
20260506020053 22 121 0.0 9.7 0.00 0.00 0.00 51 1010.5
20260506015543 22 276 1.6 8.0 0.00 0.00 0.00 51 1010.6
20260506015041 23 53 1.6 9.7 0.00 0.00 0.00 50 1010.4
20260506014608 23 256 1.6 9.7 0.00 0.00 0.00 49 1010.2
20260506014040 23 182 1.6 9.7 0.00 0.00 0.00 48 1010.4
20260506013541 23 253 3.2 9.7 0.00 0.00 0.00 48 1010.3
20260506013050 23 244 1.6 6.4 0.00 0.00 0.00 46 1010.1
20260506012541 24 221 0.0 4.8 0.00 0.00 0.00 45 1010.0
20260506012053 25 0 0.0 4.8 0.00 0.00 0.00 44 1010.0
20260506011613 25 219 0.0 4.8 0.00 0.00 0.00 43 1009.9
20260506011040 25 0 0.0 9.7 0.00 0.00 0.00 42 1009.9
20260506010542 25 0 1.6 9.7 0.00 0.00 0.00 41 1009.7
20260506010053 25 88 0.0 9.7 0.00 0.00 0.00 40 1009.6
20260506005540 25 0 1.6 11.3 0.00 0.00 0.00 38 1009.4
20260506005039 25 278 3.2 11.3 0.00 0.00 0.00 38 1009.3
20260506004559 25 287 3.2 9.7 0.00 0.00 0.00 38 1009.4
20260506004041 26 246 1.6 8.0 0.00 0.00 0.00 38 1009.3
20260506003542 26 0 1.6 11.3 0.00 0.00 0.00 37 1009.3
20260506003053 26 284 1.6 11.3 0.00 0.00 0.00 37 1009.2
20260506002541 26 0 3.2 9.7 0.00 0.00 0.00 36 1009.1
20260506002041 26 303 1.6 6.4 0.00 0.00 0.00 35 1009.1
20260506001556 26 217 1.6 9.7 0.00 0.00 0.00 33 1009.1
20260506001041 26 0 3.2 9.7 0.00 0.00 0.00 32 1009.0
20260506000541 26 241 3.2 11.3 0.00 0.00 0.00 32 1008.9
20260506000116 26 271 3.2 11.3 0.00 0.00 0.00 31 1009.0
20260505235542 26 167 4.8 11.3 0.00 0.00 0.00 31 1008.9
20260505235040 26 238 1.6 6.4 0.00 0.00 0.00 30 1009.0
20260505234553 27 260 1.6 8.0 0.00 0.00 0.00 30 1008.8
20260505234041 27 214 1.6 8.0 0.00 0.00 0.00 30 1008.8
20260505233540 27 219 1.6 20.9 0.00 0.00 0.00 29 1008.7
20260505233059 27 310 3.2 20.9 0.00 0.00 0.00 29 1008.6
20260505232540 27 258 4.8 17.7 0.00 0.00 0.00 29 1008.6
20260505232044 27 241 3.2 16.1 0.00 0.00 0.00 28 1008.6
20260505231612 27 211 6.4 16.1 0.00 0.00 0.00 28 1008.5
20260505231042 27 281 3.2 16.1 0.00 0.00 0.00 28 1008.2
20260505230540 27 330 4.8 16.1 0.00 0.00 0.00 27 1008.3
20260505230105 27 283 4.8 16.1 0.00 0.00 0.00 27 1008.3
20260505225544 28 267 6.4 12.9 0.00 0.00 0.00 26 1008.2
20260505225044 28 259 4.8 19.3 0.00 0.00 0.00 26 1008.1
20260505224551 28 269 3.2 24.1 0.00 0.00 0.00 27 1008.0
20260505224040 28 273 6.4 24.1 0.00 0.00 0.00 26 1007.9
20260505223540 28 250 4.8 19.3 0.00 0.00 0.00 27 1008.0
20260505223056 28 234 4.8 14.5 0.00 0.00 0.00 27 1007.9
20260505222540 28 273 3.2 14.5 0.00 0.00 0.00 27 1007.7
20260505222040 28 284 4.8 14.5 0.00 0.00 0.00 27 1007.9
20260505221556 28 249 4.8 14.5 0.00 0.00 0.00 27 1007.9
20260505221040 28 336 4.8 16.1 0.00 0.00 0.00 27 1007.9
20260505220540 28 287 3.2 16.1 0.00 0.00 0.00 27 1008.0
20260505220049 28 302 3.2 14.5 0.00 0.00 0.00 27 1007.8
20260505215540 28 290 3.2 12.9 0.00 0.00 0.00 27 1007.8
20260505215040 28 248 4.8 12.9 0.00 0.00 0.00 27 1007.6
20260505214545 28 237 4.8 17.7 0.00 0.00 0.00 27 1007.5
20260505214042 29 240 4.8 17.7 0.00 0.00 0.00 27 1007.4
20260505213540 29 259 4.8 17.7 0.00 0.00 0.00 28 1007.6
20260505213044 29 282 3.2 17.7 0.00 0.00 0.00 28 1007.5
20260505212539 29 238 4.8 14.5 0.00 0.00 0.00 27 1007.6
20260505212041 29 196 4.8 14.5 0.00 0.00 0.00 27 1007.6
20260505211543 29 261 8.0 14.5 0.00 0.00 0.00 26 1007.4
20260505211041 29 300 4.8 12.9 0.00 0.00 0.00 27 1007.3
20260505210540 29 267 3.2 12.9 0.00 0.00 0.00 27 1007.4
20260505210050 29 183 4.8 12.9 0.00 0.00 0.00 28 1007.5
20260505205543 29 211 3.2 33.8 0.00 0.00 0.00 28 1007.4
20260505205041 29 202 3.2 33.8 0.00 0.00 0.00 28 1007.5
20260505204552 29 265 4.8 33.8 0.00 0.00 0.00 28 1007.3
20260505204040 29 218 3.2 25.7 0.00 0.00 0.00 29 1007.5
20260505203541 29 259 6.4 25.7 0.00 0.00 0.00 28 1007.5
20260505203056 29 307 4.8 16.1 0.00 0.00 0.00 28 1007.6
20260505202540 28 352 6.4 19.3 0.00 0.00 0.00 28 1007.6
20260505202040 28 227 4.8 24.1 0.00 0.00 0.00 30 1007.6
20260505201549 28 285 4.8 24.1 0.00 0.00 0.00 29 1007.5
20260505201040 28 204 4.8 16.1 0.00 0.00 0.00 29 1007.6
20260505200541 28 261 3.2 9.7 0.00 0.00 0.00 30 1007.7
20260505200047 28 192 1.6 11.3 0.00 0.00 0.00 36 1007.8
20260505195541 28 142 1.6 11.3 0.00 0.00 0.00 39 1007.9
20260505195042 28 79 4.8 11.3 0.00 0.00 0.00 37 1007.9
20260505194603 28 284 3.2 8.0 0.00 0.00 0.00 39 1008.1
20260505194040 28 273 1.6 11.3 0.00 0.00 0.00 39 1008.0
20260505193541 28 341 1.6 16.1 0.00 0.00 0.00 38 1008.2
20260505193048 28 26 3.2 16.1 0.00 0.00 0.00 39 1008.1
20260505192540 28 171 1.6 6.4 0.00 0.00 0.00 40 1008.2
20260505192040 28 173 1.6 12.9 0.00 0.00 0.00 40 1008.5
20260505191600 28 257 3.2 19.3 0.00 0.00 0.00 39 1008.4
20260505191040 28 229 1.6 19.3 0.00 0.00 0.00 40 1008.5
20260505190541 28 274 3.2 9.7 0.00 0.00 0.00 34 1008.3
20260505190047 28 92 0.0 9.7 0.00 0.00 0.00 40 1008.5
20260505185540 28 205 1.6 9.7 0.00 0.00 0.00 40 1008.8
20260505185040 28 99 3.2 12.9 0.00 0.00 0.00 39 1008.8
20260505184544 29 207 0.0 12.9 0.00 0.00 0.00 39 1009.1
20260505184040 29 152 3.2 14.5 0.00 0.00 0.00 37 1009.2
20260505183539 30 54 3.2 16.1 0.00 0.00 0.00 36 1009.2
20260505183053 30 213 1.6 16.1 0.00 0.00 0.00 36 1009.1
20260505182540 30 345 1.6 16.1 0.00 0.00 0.00 37 1009.0
20260505182042 30 57 3.2 14.5 0.00 0.00 0.00 36 1009.1
20260505181548 30 69 3.2 12.9 0.00 0.00 0.00 35 1009.1
20260505181040 30 0 3.2 12.9 0.00 0.00 0.00 34 1009.2
20260505180540 31 80 1.6 9.7 0.00 0.00 0.00 34 1009.3
20260505180054 30 286 3.2 11.3 0.00 0.00 0.00 33 1009.2
20260505175543 30 214 1.6 14.5 0.00 0.00 0.00 34 1009.1
20260505175040 30 57 1.6 14.5 0.00 0.00 0.00 34 1009.3
20260505174549 30 248 1.6 12.9 0.00 0.00 0.00 34 1009.3
20260505174040 30 0 3.2 12.9 0.00 0.00 0.00 34 1009.4
20260505173540 31 244 1.6 8.0 0.00 0.00 0.00 34 1009.4
20260505173111 30 254 3.2 12.9 0.00 0.00 0.00 34 1009.5
20260505172539 31 210 3.2 14.5 0.00 0.00 0.00 33 1009.7
20260505172039 31 287 1.6 14.5 0.00 0.00 0.00 33 1009.5
20260505171613 31 200 1.6 6.4 0.00 0.00 0.00 34 1009.6
20260505171040 30 0 1.6 8.0 0.00 0.00 0.00 34 1009.6
20260505170540 30 0 1.6 8.0 0.00 0.00 0.00 35 1009.7
20260505170051 30 19 1.6 6.4 0.00 0.00 0.00 34 1009.6
20260505165540 30 215 1.6 4.8 0.00 0.00 0.00 35 1009.7
20260505165039 30 244 0.0 12.9 0.00 0.00 0.00 35 1009.8
20260505164555 30 0 1.6 12.9 0.00 0.00 0.00 35 1009.9
20260505164040 30 240 1.6 6.4 0.00 0.00 0.00 36 1010.0
20260505163540 30 265 1.6 11.3 0.00 0.00 0.00 35 1010.0
20260505163046 30 255 0.0 11.3 0.00 0.00 0.00 36 1010.1
20260505162540 29 0 3.2 11.3 0.00 0.00 0.00 36 1010.1
20260505162041 30 209 1.6 11.3 0.00 0.00 0.00 36 1010.3
20260505161553 29 216 1.6 8.0 0.00 0.00 0.00 36 1010.4
20260505161040 29 306 1.6 8.0 0.00 0.00 0.00 37 1010.6
20260505160547 29 199 1.6 8.0 0.00 0.00 0.00 36 1010.4
20260505153043 28 259 1.6 6.4 0.00 0.00 0.00 39 1011.0
20260505152540 28 211 1.6 6.4 0.00 0.00 0.00 40 1010.9
20260505152040 27 286 1.6 8.0 0.00 0.00 0.00 39 1011.0
20260505151549 27 197 1.6 8.0 0.00 0.00 0.00 40 1010.8
20260505151043 27 187 0.0 8.0 0.00 0.00 0.00 40 1011.0
20260505150540 27 0 1.6 6.4 0.00 0.00 0.00 40 1010.9
20260505150106 27 240 0.0 8.0 0.00 0.00 0.00 41 1011.1
20260505140541 25 317 1.6 6.4 0.00 0.00 0.00 46 1011.4
20260505125039 20 294 0.0 6.4 0.00 0.00 0.00 61 1011.1
20260505124555 19 76 0.0 6.4 0.00 0.00 0.00 63 1011.1
20260505124040 18 190 0.0 3.2 0.00 0.00 0.00 65 1011.1
20260505123539 18 201 0.0 3.2 0.00 0.00 0.00 67 1011.0
20260505123058 17 0 0.0 4.8 0.00 0.00 0.00 68 1011.3
20260505122540 17 0 0.0 4.8 0.00 0.00 0.00 70 1011.2
20260505122040 17 183 0.0 3.2 0.00 0.00 0.00 71 1011.3
20260505121622 16 236 0.0 3.2 0.00 0.00 0.00 73 1011.3
20260505121040 16 0 0.0 3.2 0.00 0.00 0.00 73 1011.3
20260505120540 16 0 0.0 3.2 0.00 0.00 0.00 73 1011.3
20260505120054 16 0 0.0 3.2 0.00 0.00 0.00 73 1011.3
20260505115540 15 221 0.0 4.8 0.00 0.00 0.00 73 1011.2
20260505115040 15 242 1.6 4.8 0.00 0.00 0.00 73 1011.3
20260505114552 15 0 0.0 4.8 0.00 0.00 0.00 73 1010.9
20260505114056 15 0 0.0 3.2 0.00 0.00 0.00 74 1011.4
20260505113541 15 0 0.0 3.2 0.00 0.00 0.00 74 1011.3
20260505113056 15 0 0.0 4.8 0.00 0.00 0.00 75 1011.1
20260505112539 15 0 0.0 4.8 0.00 0.00 0.00 75 1011.1
20260505112039 15 0 0.0 3.2 0.00 0.00 0.00 75 1010.8
20260505111554 15 0 0.0 3.2 0.00 0.00 0.00 75 1011.3
20260505111041 14 294 0.0 3.2 0.00 0.00 0.00 75 1011.4
20260505110539 14 0 0.0 3.2 0.00 0.00 0.00 75 1011.4
20260505102039 13 0 0.0 3.2 0.00 0.00 0.00 74 1011.1
20260505101544 13 184 0.0 1.6 0.00 0.00 0.00 74 1011.2
20260505101040 13 0 0.0 1.6 0.00 0.00 0.00 74 1011.0
20260505100540 13 196 0.0 1.6 0.00 0.00 0.00 74 1010.9
20260505100118 13 0 0.0 1.6 0.00 0.00 0.00 74 1010.7
20260505095544 13 0 0.0 1.6 0.00 0.00 0.00 74 1010.6
20260505095044 13 155 0.0 1.6 0.00 0.00 0.00 74 1010.7
20260505094545 13 0 0.0 1.6 0.00 0.00 0.00 74 1010.6
20260505094039 13 0 0.0 1.6 0.00 0.00 0.00 74 1010.4
20260505093541 13 0 0.0 1.6 0.00 0.00 0.00 73 1010.4
20260505093042 13 0 0.0 1.6 0.00 0.00 0.00 73 1010.5
20260505092541 13 0 0.0 0.0 0.00 0.00 0.00 73 1010.5
20260505092039 13 0 0.0 1.6 0.00 0.00 0.00 73 1010.4
20260505091608 13 0 0.0 3.2 0.00 0.00 0.00 73 1010.5
20260505091038 13 0 0.0 3.2 0.00 0.00 0.00 73 1010.3
20260505090540 13 0 0.0 4.8 0.00 0.00 0.00 72 1010.4
20260505090058 13 0 0.0 4.8 0.00 0.00 0.00 72 1010.4
20260505085540 13 0 0.0 0.0 0.00 0.00 0.00 71 1010.4
20260505085040 13 0 0.0 0.0 0.00 0.00 0.00 71 1010.5
20260505084547 13 0 0.0 0.0 0.00 0.00 0.00 71 1010.4
20260505084044 13 0 0.0 0.0 0.00 0.00 0.00 71 1010.4
20260505083539 13 0 0.0 0.0 0.00 0.00 0.00 71 1010.4
20260505083050 13 0 0.0 0.0 0.00 0.00 0.00 71 1010.5
20260505082539 13 0 0.0 0.0 0.00 0.00 0.00 71 1010.3
20260505082039 13 0 0.0 0.0 0.00 0.00 0.00 70 1010.4
20260505081548 13 0 0.0 0.0 0.00 0.00 0.00 70 1010.4
20260505081042 14 0 0.0 0.0 0.00 0.00 0.00 69 1010.5
20260505080540 14 0 0.0 0.0 0.00 0.00 0.00 67 1010.5
20260505080053 14 0 0.0 0.0 0.00 0.00 0.00 68 1010.6
20260505075539 14 0 0.0 0.0 0.00 0.00 0.00 68 1010.5
20260505075040 14 0 0.0 0.0 0.00 0.00 0.00 67 1010.4
20260505074546 14 0 0.0 0.0 0.00 0.00 0.00 67 1010.4
20260505074039 14 0 0.0 0.0 0.00 0.00 0.00 67 1010.5
20260505073539 14 0 0.0 0.0 0.00 0.00 0.00 66 1010.4
20260505073059 14 0 0.0 0.0 0.00 0.00 0.00 65 1010.5
20260505072543 14 0 0.0 0.0 0.00 0.00 0.00 65 1010.4
20260505072035 15 0 0.0 0.0 0.00 0.00 0.00 66 1010.6
20260505071549 15 0 0.0 0.0 0.00 0.00 0.00 65 1010.5
20260505071039 15 0 0.0 0.0 0.00 0.00 0.00 65 1010.4
20260505070541 15 0 0.0 0.0 0.00 0.00 0.00 64 1010.4
20260505070043 15 0 0.0 0.0 0.00 0.00 0.00 64 1010.4
20260505065541 15 0 0.0 1.6 0.00 0.00 0.00 64 1010.3
20260505065039 15 0 0.0 1.6 0.00 0.00 0.00 64 1010.3
20260505064552 15 0 0.0 1.6 0.00 0.00 0.00 64 1010.4
20260505064040 15 0 0.0 0.0 0.00 0.00 0.00 63 1010.5
20260505063539 15 0 0.0 0.0 0.00 0.00 0.00 62 1010.5
20260505063052 15 0 0.0 1.6 0.00 0.00 0.00 62 1010.3
20260505062539 15 0 0.0 1.6 0.00 0.00 0.00 62 1010.5
20260505062038 15 300 0.0 1.6 0.00 0.00 0.00 61 1010.5
20260505061548 15 0 0.0 1.6 0.00 0.00 0.00 61 1010.6
20260505061039 15 0 0.0 1.6 0.00 0.00 0.00 61 1010.6
20260505060544 16 299 0.0 1.6 0.00 0.00 0.00 60 1010.7
20260505060049 16 0 0.0 1.6 0.00 0.00 0.00 61 1010.6
20260505055539 16 0 0.0 1.6 0.00 0.00 0.00 60 1010.7
20260505055036 16 0 0.0 1.6 0.00 0.00 0.00 61 1010.6
20260505054615 16 0 0.0 1.6 0.00 0.00 0.00 60 1010.7
20260505054040 16 300 0.0 1.6 0.00 0.00 0.00 60 1010.7
20260505053535 16 0 0.0 1.6 0.00 0.00 0.00 60 1010.7
20260505053048 16 0 0.0 3.2 0.00 0.00 0.00 59 1010.8
20260505052542 16 0 0.0 3.2 0.00 0.00 0.00 59 1010.8
20260505052040 16 0 0.0 3.2 0.00 0.00 0.00 59 1010.8
20260505051547 16 0 0.0 3.2 0.00 0.00 0.00 58 1010.8
20260505051041 16 0 0.0 3.2 0.00 0.00 0.00 58 1010.9
20260505050540 16 191 0.0 3.2 0.00 0.00 0.00 58 1011.0
20260505041600 16 0 0.0 3.2 0.00 0.00 0.00 55 1011.1
20260505041041 17 0 0.0 3.2 0.00 0.00 0.00 55 1011.1
20260505040542 17 0 0.0 4.8 0.00 0.00 0.00 54 1011.2
20260505040051 17 0 0.0 4.8 0.00 0.00 0.00 54 1011.2
20260505035540 17 0 0.0 1.6 0.00 0.00 0.00 54 1011.1
20260505035040 17 0 0.0 3.2 0.00 0.00 0.00 53 1011.1
20260505034550 17 0 0.0 3.2 0.00 0.00 0.00 53 1011.1
20260505034040 17 0 0.0 3.2 0.00 0.00 0.00 53 1011.1
20260505033541 17 0 0.0 3.2 0.00 0.00 0.00 52 1011.1
20260505033048 17 0 0.0 3.2 0.00 0.00 0.00 52 1011.1
20260505032541 17 0 0.0 4.8 0.00 0.00 0.00 52 1011.2
20260505032038 17 0 0.0 4.8 0.00 0.00 0.00 52 1011.2
20260505031545 17 0 0.0 4.8 0.00 0.00 0.00 52 1011.0
20260505031038 17 0 0.0 3.2 0.00 0.00 0.00 52 1011.3
20260505030542 17 0 0.0 1.6 0.00 0.00 0.00 52 1011.2
20260505030104 17 0 0.0 3.2 0.00 0.00 0.00 52 1011.2
20260505025539 17 0 0.0 3.2 0.00 0.00 0.00 51 1011.1
20260505025041 17 0 0.0 3.2 0.00 0.00 0.00 51 1011.2